Regional Weather Roundup
Issued by NWS

Home | Current Version | Previous Version | Text Only | Print | Product List | Glossary On
Versions: 1 2 3 4 5 6 7 8 9 10 11 12 13 14 15 16 17 18 19 20 21 22 23 24 25 26 27
000
ASUS43 KMPX 101310
RWRMN
WEATHER ROUNDUP FOR MINNESOTA
NATIONAL WEATHER SERVICE TWIN CITIES/CHANHASSEN MN
800 AM CDT MON MAY 10 2021


NOTE: "FAIR" INDICATES FEW OR NO CLOUDS BELOW 12,000 FEET WITH NO
SIGNIFICANT WEATHER AND/OR OBSTRUCTIONS TO VISIBILITY. N/A MEANS
CURRENT SKY AND/OR WEATHER CONDITIONS ARE NOT AVAILABLE.

MNZ060>063-068>070-101400-
   Twin Cities Metro

CITY           SKY/WX    TMP DP  RH WIND       PRES   REMARKS
TWIN CITIES    LGT RAIN  42  34  73 E7        30.21R
ST PAUL        CLOUDY    44  31  60 E8        30.22S
CRYSTAL        CLOUDY    43  31  62 CALM      30.21R
BLAINE         MOSUNNY   45  28  53 NE9       30.21R
LAKEVILLE      CLOUDY    43  27  52 NE15      30.19S
EDEN PRAIRIE   LGT RAIN  42  33  70 NE6       30.20R
SOUTH ST PAUL  MOSUNNY   43  34  70 CALM      30.21S
$$
MNZ001>005-007-008-013>017-022>024-027-028-101400-
   Northwest Minnesota

CITY           SKY/WX    TMP DP  RH WIND       PRES   REMARKS
BEMIDJI        CLOUDY    38  26  63 NE5       30.27R
HALLOCK        SUNNY     43  25  49 NE8       30.32R
ROSEAU           N/A     45 N/A N/A NE7       30.32R
WARROAD        CLOUDY    43  32  65 NE10      30.33R
THIEF RVR FALL CLOUDY    40  24  53 NE8       30.31R
CROOKSTON      CLOUDY    41  23  48 E6        30.31
FOSSTON        CLOUDY    37  25  60 NE6       30.28S
DETROIT LAKES  CLOUDY    41  27  56 NE8       30.25R
MOORHEAD       SUNNY     41  21  45 NE7       30.28R
PARK RAPIDS    CLOUDY    41  26  55 NE6       30.25R
MAHNOMEN       CLOUDY    40  26  56 E9        30.27R
$$
MNZ006-009>011-018-025>026-101400-
   North Central Minnesota

CITY           SKY/WX    TMP DP  RH WIND       PRES   REMARKS
BAUDETTE       SUNNY     40  26  57 E12       30.31R
FLAG ISLAND    SUNNY     39  23  52 E7        30.32R
INTL FALLS     SUNNY     40  25  55 NE10      30.29R
WASKISH        SUNNY     39  27  60 NE8       30.29R
BIG FORK       MOSUNNY   39  27  60 NE6       30.31R
LONGVILLE      CLOUDY    41  27  56 NE5       30.25R
GRAND RAPIDS   CLOUDY    37  28  70 VRB3      30.27R
CRANE LAKE     SUNNY     36  28  75 N3        30.31R
ORR            SUNNY     37  25  60 CALM      30.25R
COOK           SUNNY     39  27  60 NE5       30.26R
WALKER         CLOUDY    38  27  63 N3        30.26R
$$
MNZ012-019>021-037-101400-
   Northeast Minnesota

CITY           SKY/WX    TMP DP  RH WIND       PRES   REMARKS
DULUTH         CLOUDY    38  27  64 N5        30.23R
ELY            SUNNY     37  27  65 NE3       30.25R
HIBBING        CLOUDY    38  27  64 NE7       30.25R
EVELETH        CLOUDY    39  28  63 NE8       30.25S
DULUTH HARBOR  CLOUDY    41  28  60 NE5       30.26R
TWO HARBORS    PTSUNNY   43  27  52 NE5       30.23R
SILVER BAY     PTSUNNY   41  25  52 N5        30.23S
GRAND MARAIS     N/A     41  27  57 N8G18     30.24R
G MARAIS ARPRT MOSUNNY   36  27  69 N9        30.20R
$$
MNZ029>031-032-039>041-046>048-054>057-064-101400-
   West Central Minnesota

CITY           SKY/WX    TMP DP  RH WIND       PRES   REMARKS
FERGUS FALLS   CLOUDY    43  30  61 E5        30.21R
WHEATON        SUNNY     43  28  56 NE7       30.25R
MORRIS         MOSUNNY   43  25  49 E9        30.23R
ALEXANDRIA     CLOUDY    41  29  62 NE12      30.23R
ELBOW LAKE     CLOUDY    42  31  64 E8        30.24R
WADENA         CLOUDY    39  30  70 NE3       30.24R
GLENWOOD       CLOUDY    43  28  56 NE16      30.22R
APPLETON       PTSUNNY   45  27  49 E12G17    30.21R
BENSON         PTSUNNY   43  28  56 E8        30.23R
ORTONVILLE     PTSUNNY   43  30  61 NE10      30.22R
MADISON        SUNNY     45  28  53 NE7       30.22R
WILLMAR        FAIR      45  28  53 NE12      30.23R
$$
MNZ033>034-036-042>043-049>051-058-059-101400-
   Central Minnesota

CITY           SKY/WX    TMP DP  RH WIND       PRES   REMARKS
ST CLOUD       CLOUDY    43  27  53 NE10      30.22R
SAUK CENTRE    CLOUDY    41  29  61 NE9       30.23R
PAYNESVILLE    PTSUNNY   43  32  65 NE8       30.22R
AITKIN         CLOUDY    37  28  70 CALM      30.25R
PINE RIVER     CLOUDY    41  28  60 NE7       30.28R
BRAINERD       CLOUDY    41  28  60 NE7       30.25R
STAPLES        CLOUDY    41  28  60 NE5       30.24R
LONG PRAIRIE   CLOUDY    39  30  70 NE7       30.24R
LITTLE FALLS   CLOUDY    39  28  65 CALM      30.24R
CAMP RIPLEY    CLOUDY    41  29  61 NE9       30.25R
LITCHFIELD     MOSUNNY   43  30  61 E8        30.20R
BUFFALO        CLOUDY    41  32  69 MISG      30.22S
MAPLE LAKE     CLOUDY    43  32  66 E7        30.22S
HUTCHINSON     PTSUNNY   43  31  62 NE12      30.20R
$$
MNZ037-044-045-052-053-101400-
   East Central Minnesota

CITY           SKY/WX    TMP DP  RH WIND       PRES   REMARKS
PRINCETON      MOSUNNY   45  28  53 NE8       30.23S
MORA           MOSUNNY   37  28  70 CALM      30.25R
CAMBRIDGE      MOSUNNY   45  28  53 E6        30.23S
RUSH CITY      SUNNY     39  30  70 NE6       30.24R
MOOSE LAKE     CLOUDY    36  30  80 CALM      30.23R
HINCKLEY       MOSUNNY   39  30  70 NE6       30.24R
CLOQUET        CLOUDY    36  27  69 CALM      30.22S
MCGREGOR       CLOUDY    37  28  70 NE5       30.25
$$
MNZ071>073-080-081-089-090-097-098-101400-
   Southwest Minnesota

CITY           SKY/WX    TMP DP  RH WIND       PRES   REMARKS
MONTEVIDEO     MOSUNNY   45  27  49 E10       30.20R
GRANITE FALLS  SUNNY     45  31  59 NE10      30.21R
CANBY          SUNNY     42  30  62 N6        30.21R
MARSHALL       SUNNY     42  28  57 E10       30.19R
REDWOOD FALLS  SUNNY     44  27  51 NE10      30.18R
OLIVIA         SUNNY     45  27  49 NE14      30.18R
PIPESTONE      SUNNY     43  30  61 NE9       30.15R
WINDOM         SUNNY     43  28  56 N8        30.14R
WORTHINGTON    MOSUNNY   44  30  57 N14       30.15R
JACKSON        MOSUNNY   46  28  49 CALM      30.14R
TRACY          SUNNY     43  28  55 NE10G17   30.17R
SLAYTON        SUNNY     41  27  56 N9        30.16R
$$
MNZ065>067-074>077-082>085-091>093-101400-
   South Central Minnesota

CITY           SKY/WX    TMP DP  RH WIND       PRES   REMARKS
MANKATO        MOSUNNY   44  27  51 NE16G23   30.17R
NEW ULM        PTSUNNY   43  28  56 NE8       30.17R
ST JAMES       PTSUNNY   45  27  49 NE12      30.15R
FAIRMONT       MOSUNNY   46  26  45 E15       30.14R
GLENCOE        CLOUDY    42  29  59 NE12G17   30.19R
FARIBAULT      PTSUNNY   43  28  56 NE13      30.17S
OWATONNA       MOSUNNY   43  28  56 NE12G20   30.16R
WASECA         MOSUNNY   43  28  56 NE15G23   30.16S
ALBERT LEA     PTSUNNY   45  28  53 NE10      30.14R
$$
MNZ078>079-086>088-094>096-101400-
   Southeast Minnesota

CITY           SKY/WX    TMP DP  RH WIND       PRES   REMARKS
ROCHESTER      PTSUNNY   42  27  55 NE15      30.15R
RED WING       CLOUDY    43  27  52 NE5       30.20R
STANTON        CLOUDY    42  29  58 NE15      30.18R
DODGE CENTER   MOSUNNY   43  25  49 NE13      30.16R
WINONA         CLOUDY    43  30  61 NE3       30.19R
AUSTIN         MOSUNNY   43  28  56 NE9G16    30.13S
PRESTON        PTSUNNY   41  29  62 N12       30.15S
$$
ABBREVIATIONS USED IN REMARKS
   TC - TEMPERATURES IN CELSIUS
  WCI - WIND CHILL INDEX
   HX - HEAT INDEX
  VSB - VISIBILITY
$$



USA.gov is the U.S. government's official web portal to all federal, state and local government web resources and services.